This is the latest recevied weather packets stored in our database for station/object SQ9RHX-11. If no packets are shown the sender has not sent any weather packets the latest 10 day(s).
| Time | Temp. | Humidity | Pressure | Rain* | Wind** | Luminosity | Snow |
|---|---|---|---|---|---|---|---|
| 1778158750 | 12.22° C | 82% | 1014.2 hPa | - | - | - | - |
| 1778153352 | 11.11° C | 86% | 1013.9 hPa | - | - | - | - |
| 1778151552 | 11.11° C | 86% | 1013.6 hPa | - | - | - | - |
| 1778147956 | 11.67° C | 87% | 1013.1 hPa | - | - | - | - |
| 1778146157 | 11.67° C | 87% | 1012.8 hPa | - | - | - | - |
| 1778144359 | 11.67° C | 88% | 1012.4 hPa | - | - | - | - |
| 1778142560 | 12.22° C | 88% | 1012 hPa | - | - | - | - |
| 1778140759 | 11.67° C | 89% | 1011.6 hPa | - | - | - | - |
| 1778138961 | 11.11° C | 90% | 1011.5 hPa | - | - | - | - |
| 1778137161 | 11.11° C | 90% | 1011.2 hPa | - | - | - | - |
| 1778135362 | 11.11° C | 91% | 1011 hPa | - | - | - | - |
| 1778133561 | 11.11° C | 91% | 1010.7 hPa | - | - | - | - |
| 1778131762 | 11.11° C | 91% | 1010.3 hPa | - | - | - | - |
| 1778129964 | 10.56° C | 91% | 1010.1 hPa | - | - | - | - |
| 1778128166 | 11.11° C | 91% | 1009.8 hPa | - | - | - | - |
| 1778126369 | 11.11° C | 91% | 1009.5 hPa | - | - | - | - |
| 1778124571 | 11.67° C | 91% | 1009.4 hPa | - | - | - | - |
| 1778122774 | 11.67° C | 91% | 1008.9 hPa | - | - | - | - |
| 1778120979 | 12.78° C | 91% | 1008.6 hPa | - | - | - | - |
| 1778119182 | 12.78° C | 90% | 1008.3 hPa | - | - | - | - |
| 1778117384 | 12.78° C | 90% | 1008.2 hPa | - | - | - | - |
| 1778115588 | 13.33° C | 90% | 1007.9 hPa | - | - | - | - |
| 1778113792 | 13.33° C | 90% | 1008.3 hPa | - | - | - | - |
| 1778111997 | 13.33° C | 90% | 1008.4 hPa | - | - | - | - |
| 1778110200 | 13.33° C | 90% | 1008.1 hPa | - | - | - | - |
* Rain since midnight (hover to see other rain measurements)
** Current wind speed in m/s (hover to see current wind gust speed)